Regional Weather Roundup
Issued by NWS State College, PA

Home | Current Version | Previous Version | Text Only | Print | Product List | Glossary On
Versions: 1 2 3 4 5 6 7 8 9 10 11 12 13 14 15 16 17 18 19 20 21 22 23 24 25 26 27 28 29 30 31 32 33 34 35 36 37 38 39 40 41 42 43 44 45 46 47 48 49 50
000
ASUS41 KCTP 111003
RWRCTP

REGIONAL WEATHER ROUNDUP
NATIONAL WEATHER SERVICE STATE COLLEGE PA
500 AM EST MON DEC 11 2017

Note: "fair" indicates few or no clouds below 12,000 feet with no
significant weather and/or obstructions to visibility.

* = STATION THAT DOES NOT REPORT PRECIPITATION /E.G. RAIN...SNOW...ETC/
    THUNDER OR FOG.

PAZ002>004-007>009-013>016-020>023-029>032-111100-
WESTERN PENNSYLVANIA

CITY           SKY/WX    TMP DP  RH WIND       PRES   REMARKS
ERIE           CLOUDY    30  21  69 NW9       29.98R
MEADVILLE      CLOUDY    27  23  85 W6        29.95R
FRANKLIN*      FLURRIES  26  21  81 SW7       29.95R
NEW CASTLE     CLOUDY    30  23  75 W9        30.01R
BEAVER COUNTY  NOT AVBL
BUTLER*        CLOUDY    29  21  72 W7        29.99R
PITTSBURGH INT CLOUDY    33  20  58 W9        29.99R
PITTSBURGH     CLOUDY    31  18  58 W12       29.98S
INDIANA*       CLOUDY    30  21  69 W6G15     30.00R
LATROBE        CLOUDY    32  19  59 W9        30.00R
WASHINGTON CO* CLOUDY    32  21  64 W15       30.03R
$$

PAZ004>006-010>012-017>019-024>028-033>037-041-042-045-046-049>053-111100-
CENTRAL PENNSYLVANIA

CITY           SKY/WX    TMP DP  RH WIND       PRES   REMARKS
BRADFORD       LGT SNOW  24  22  91 VRB6      29.87R FOG
DUBOIS         CLOUDY    26  19  74 W13       29.91S WCI  15
CLEARFIELD     CLOUDY    29  20  69 W7        29.93S
JOHNSTOWN      CLOUDY    27  18  69 W13       29.91R
ALTOONA        CLOUDY    33  19  56 W10       29.96R
STATE COLLEGE  CLOUDY    29  20  70 W6        29.95S
WILLIAMSPORT   CLOUDY    32  22  66 CALM      29.97R
SELINSGROVE    CLOUDY    31  23  72 VRB3      30.00R
FT INDIANTOWN  CLOUDY    29  26  85 CALM      29.99R
CAPITAL CITY   CLOUDY    34  21  59 W5        30.00R
HARRISBURG     CLOUDY    35  21  56 W5        30.00R
YORK           CLOUDY    35  21  56 W7        30.00R
$$

PAZ038>040-043-044-047-048-054-055-060>062-067>071-111100-
EASTERN PENNSYLVANIA

CITY           SKY/WX    TMP DP  RH WIND       PRES   REMARKS
SCRANTON       CLOUDY    30  21  69 SW6       29.94R
MOUNT POCONO   CLOUDY    24  20  84 W7        29.88R
ALLENTOWN      CLOUDY    32  23  69 W3        29.98S
QUAKERTOWN*    PTSUNNY   32  23  69 CALM      29.99S
READING        CLOUDY    33  24  69 SW3       29.99R
LANCASTER      CLOUDY    34  24  67 SW5       30.00R
COATESVILLE    CLOUDY    34  23  64 SW5       30.00R
POTTSTOWN      CLOUDY    34  20  56 SW5       30.01S
BLUE BELL      CLOUDY    34  25  69 CALM      30.01F
DOYLESTOWN     CLOUDY    30  23  75 S3        29.99S
WILLOW GROVE   NOT AVBL
NORTH PHILA    CLOUDY    35  28  75 CALM      30.03S
PHILADELPHIA   CLOUDY    34  28  79 S9        30.03S
$$



USA.gov is the U.S. government's official web portal to all federal, state and local government web resources and services.